PST,Max TemperatureF,Mean TemperatureF,Min TemperatureF,Max Dew PointF,MeanDew PointF,Min DewpointF,Max Humidity, Mean Humidity, Min Humidity, Max Sea Level PressureIn, Mean Sea Level PressureIn, Min Sea Level PressureIn, Max VisibilityMiles, Mean VisibilityMiles, Min VisibilityMiles, Max Wind SpeedMPH, Mean Wind SpeedMPH, Max Gust SpeedMPH,PrecipitationIn, CloudCover, Events, WindDirDegrees
2013-1-1,30,23,16,17,13,11,84,71,58,30.54,30.44,30.26,10,9,2,12,3,14,0.00,2,,82
2013-1-2,30,21,11,13,10,6,84,66,47,30.54,30.48,30.33,10,10,10,7,1,13,0.00,0,,258
2013-1-3,31,21,10,15,11,6,84,67,49,30.46,30.42,30.37,10,10,8,8,1,12,0.00,0,,254
2013-1-4,33,23,12,18,13,8,92,73,53,30.51,30.43,30.29,10,8,2,6,0,8,0.00,2,,200
2013-1-5,32,23,14,20,16,11,88,73,58,30.41,30.31,30.15,10,9,6,8,1,10,0.00,6,,29
2013-1-6,34,28,22,21,19,17,88,72,56,30.28,30.18,30.10,10,9,7,7,1,9,0.00,5,,120
2013-1-7,39,28,17,25,21,13,88,69,50,30.38,30.32,30.25,10,9,7,7,1,8,0.00,5,,153
2013-1-8,48,36,23,31,26,21,92,71,50,30.38,30.31,30.25,10,9,7,6,1,9,0.00,2,,178
2013-1-9,60,42,24,34,27,22,93,69,27,30.23,29.92,29.71,10,9,5,28,7,37,0.01,6,Rain,208
2013-1-10,34,30,25,19,14,10,58,44,29,30.00,29.92,29.75,10,9,2,30,11,35,T,5,Snow,326
2013-1-11,32,25,17,21,16,8,81,60,39,30.17,30.04,29.98,10,6,0,22,10,28,0.04,7,Snow,345
2013-1-12,27,17,6,12,7,2,88,63,38,30.29,30.24,30.17,10,10,10,7,1,15,0.00,2,,288
2013-1-13,26,17,8,9,4,-1,80,63,46,30.40,30.30,30.18,10,10,9,13,4,15,T,2,Snow,24
2013-1-14,29,18,7,10,5,2,80,58,35,30.56,30.50,30.29,10,10,10,8,1,12,0.00,2,,201
2013-1-15,38,27,15,20,13,8,81,60,38,30.74,30.66,30.57,10,10,10,10,2,13,0.00,4,,11
2013-1-16,42,29,15,22,18,11,88,66,44,30.76,30.67,30.58,10,10,6,10,2,13,0.00,0,,36
2013-1-17,37,28,18,20,18,15,100,72,44,30.68,30.57,30.50,10,4,0,7,1,10,0.00,3,Fog,142
2013-1-18,36,27,17,20,17,15,92,72,52,30.59,30.50,30.44,10,4,0,6,2,10,T,4,Fog,190
2013-1-19,38,27,15,20,16,12,92,70,48,30.64,30.52,30.45,10,4,0,7,1,13,T,2,Fog,33
2013-1-20,41,27,13,21,15,10,92,67,41,30.60,30.50,30.41,10,6,0,9,1,10,0.00,1,Fog,27
2013-1-21,45,31,16,22,18,13,92,65,37,30.53,30.43,30.32,10,9,6,8,1,10,0.00,0,,9
2013-1-22,45,32,19,23,19,14,88,64,39,30.38,30.29,30.21,10,9,6,6,0,9,0.00,5,,-1
2013-1-23,57,43,28,27,23,16,85,53,21,30.20,30.13,30.03,10,9,7,17,3,22,0.00,7,,337
2013-1-24,52,45,37,38,35,28,85,67,49,30.24,30.19,30.12,10,10,6,8,2,9,0.04,7,Rain,140
2013-1-25,52,44,35,40,37,34,100,82,63,30.25,30.16,30.03,10,5,0,9,2,16,T,7,Fog,145
2013-1-26,57,44,31,38,29,22,100,68,35,30.00,29.90,29.78,10,6,0,23,4,28,0.00,4,Fog,163
2013-1-27,40,32,24,27,21,13,85,65,44,30.13,29.99,29.81,10,8,0,21,10,26,0.03,6,Snow,332
2013-1-28,39,30,20,25,18,12,77,59,40,30.20,30.15,30.06,10,10,6,20,5,24,T,5,Snow,352
2013-1-29,50,43,35,29,26,21,75,59,42,30.40,30.27,30.14,10,10,10,24,9,29,0.00,5,,13
2013-1-30,56,41,26,31,27,23,92,60,27,30.46,30.40,30.34,10,10,10,8,1,12,0.00,2,,15
2013-1-31,58,42,26,32,27,23,85,59,33,30.39,30.31,30.19,10,10,10,10,1,12,0.00,1,,33